GW0309 Weather Reports


Display with metric or nautical units.
time (UTC)temp
F
wind
direction
speed
MPH
gust
MPH
rain 1hr
in
rain 24hr
in
rain mn
in
humidity
%
barometer
mb
20260502182757 0 77 2.0 5.0 0.00 0.00 0.00 1067.2
20260502182253 0 326 4.0 7.0 0.00 0.00 0.00 1067.2
20260502181749 0 246 2.0 6.0 0.00 0.00 0.00 1067.2
20260502181243 0 98 2.0 2.0 0.00 0.00 0.00 1067.4
20260502180740 0 294 3.0 8.0 0.00 0.00 0.00 1067.5
20260502180237 0 15 3.0 5.0 0.00 0.00 0.00 1067.5
20260502170155 0 121 1.0 6.0 0.00 0.00 0.00 1067.5
20260502164143 0 19 3.0 5.0 0.00 0.00 0.00 1067.6
20260502163638 0 88 0.0 5.0 0.00 0.00 0.00 1067.7
20260502163135 0 306 5.0 7.0 0.00 0.00 0.00 1067.8
20260502162632 0 74 4.0 6.0 0.00 0.00 0.00 1067.7
20260502162128 0 86 1.0 5.0 0.00 0.00 0.00 1067.5
20260502161626 0 320 3.0 7.0 0.00 0.00 0.00 1067.7
20260502161123 0 85 3.0 5.0 0.00 0.00 0.00 1067.6
20260502160621 0 41 5.0 7.0 0.00 0.00 0.00 1067.7
20260502160119 0 356 4.0 7.0 0.00 0.00 0.00 1067.7
20260502152033 0 6 2.0 3.0 0.00 0.00 0.00 1067.4
20260502151530 0 8 3.0 8.0 0.00 0.00 0.00 1067.5
20260502151027 0 61 3.0 5.0 0.00 0.00 0.00 1067.5
20260502150525 0 19 4.0 6.0 0.00 0.00 0.00 1067.2
20260502130410 0 318 3.0 5.0 0.00 0.00 0.00 1066.6
20260502123352 0 94 2.0 3.0 0.00 0.00 0.00 1066.4
20260502122850 0 105 1.0 2.0 0.00 0.00 0.00 1066.3
20260502122345 0 101 1.0 2.0 0.00 0.00 0.00 1066.4
20260502121844 0 83 2.0 2.0 0.00 0.00 0.00 1066.0
20260502121341 0 99 1.0 1.0 0.00 0.00 0.00 1066.3
20260502120838 0 220 2.0 2.0 0.00 0.00 0.00 1066.1
20260502120334 0 91 1.0 1.0 0.00 0.00 0.00 1065.8
20260502115832 0 151 1.0 1.0 0.00 0.00 0.00 1066.0
20260502115329 0 142 1.0 2.0 0.00 0.00 0.00 1065.7
20260502114825 0 239 2.0 2.0 0.00 0.00 0.00 1065.5
20260502114322 0 126 1.0 1.0 0.00 0.00 0.00 1065.6
20260502113819 0 201 2.0 2.0 0.00 0.00 0.00 1065.6
20260502113317 0 143 1.0 1.0 0.00 0.00 0.00 1065.5
20260502112815 0 145 1.0 1.0 0.00 0.00 0.00 1065.7
20260502112312 0 139 0.0 1.0 0.00 0.00 0.00 1065.4
20260502111809 0 131 0.0 0.0 0.00 0.00 0.00 1065.4
20260502111307 0 154 1.0 1.0 0.00 0.00 0.00 1065.4
20260502110804 0 141 0.0 1.0 0.00 0.00 0.00 1065.5
20260502110302 0 139 0.0 1.0 0.00 0.00 0.00 1065.5
20260502105759 0 149 1.0 1.0 0.00 0.00 0.00 1065.6
20260502105255 0 153 1.0 1.0 0.00 0.00 0.00 1065.2
20260502104754 0 174 2.0 2.0 0.00 0.00 0.00 1065.3
20260502104251 0 160 1.0 1.0 0.00 0.00 0.00 1065.4
20260502103748 0 173 2.0 2.0 0.00 0.00 0.00 1065.2
20260502103245 0 160 1.0 2.0 0.00 0.00 0.00 1065.1
20260502102742 0 145 1.0 2.0 0.00 0.00 0.00 1065.1
20260502102239 0 176 2.0 2.0 0.00 0.00 0.00 1064.9
20260502101737 0 172 1.0 2.0 0.00 0.00 0.00 1064.9
20260502101235 0 169 1.0 2.0 0.00 0.00 0.00 1064.8
20260502100733 0 152 1.0 1.0 0.00 0.00 0.00 1064.9
20260502100231 0 136 0.0 1.0 0.00 0.00 0.00 1064.9
20260502091205 0 137 0.0 1.0 0.00 0.00 0.00 1064.4
20260502090703 0 133 0.0 1.0 0.00 0.00 0.00 1064.5
20260502090159 0 128 0.0 0.0 0.00 0.00 0.00 1064.6
20260502071050 0 145 1.0 1.0 0.00 0.00 0.00 1064.8
20260502070548 0 166 1.0 2.0 0.00 0.00 0.00 1064.7
20260502070045 0 134 0.0 0.0 0.00 0.00 0.00 1064.8
20260502065544 0 131 0.0 0.0 0.00 0.00 0.00 1064.7
20260502065041 0 134 0.0 0.0 0.00 0.00 0.00 1064.7
20260502064539 0 131 0.0 0.0 0.00 0.00 0.00 1064.7
20260502064036 0 132 0.0 0.0 0.00 0.00 0.00 1064.8
20260502063533 0 131 0.0 0.0 0.00 0.00 0.00 1064.8
20260502063031 0 136 0.0 1.0 0.00 0.00 0.00 1064.9
20260502062528 0 129 0.0 0.0 0.00 0.00 0.00 1065.1
20260502062027 0 134 0.0 0.0 0.00 0.00 0.00 1065.0
20260502061524 0 134 0.0 1.0 0.00 0.00 0.00 1064.9
20260502061021 0 134 0.0 1.0 0.00 0.00 0.00 1065.1
20260502060516 0 136 0.0 1.0 0.00 0.00 0.00 1065.0
20260502060013 0 128 0.0 0.0 0.00 0.00 0.00 1064.9
20260502055510 0 133 0.0 1.0 0.00 0.00 0.00 1064.8
20260502055009 0 148 1.0 1.0 0.00 0.00 0.00 1064.9
20260502054508 0 157 1.0 2.0 0.00 0.00 0.00 1065.0
20260502054004 0 150 1.0 1.0 0.00 0.00 0.00 1065.0
20260502053501 0 133 0.0 1.0 0.00 0.00 0.00 1064.9
20260502052959 0 140 0.0 1.0 0.00 0.00 0.00 1065.0
20260502052457 0 135 0.0 1.0 0.00 0.00 0.00 1064.8
20260502051955 0 91 1.0 1.0 0.00 0.00 0.00 1065.0
20260502051453 0 135 0.0 0.0 0.00 0.00 0.00 1064.5
20260502050950 0 136 0.0 1.0 0.00 0.00 0.00 1064.6
20260502050446 0 136 0.0 0.0 0.00 0.00 0.00 1064.6
20260502045944 0 132 0.0 0.0 0.00 0.00 0.00 1064.7
20260502045440 0 127 0.0 0.0 0.00 0.00 0.00 1064.7
20260502044937 0 129 0.0 0.0 0.00 0.00 0.00 1064.6
20260502044433 0 129 0.0 0.0 0.00 0.00 0.00 1064.7
20260502043930 0 129 0.0 0.0 0.00 0.00 0.00 1064.6
20260502043428 0 123 0.0 0.0 0.00 0.00 0.00 1064.8
20260502042927 0 127 0.0 0.0 0.00 0.00 0.00 1064.5
20260502042425 0 129 0.0 0.0 0.00 0.00 0.00 1064.8
20260502041921 0 128 0.0 0.0 0.00 0.00 0.00 1064.6
20260502041420 0 128 0.0 0.0 0.00 0.00 0.00 1065.0
20260502040916 0 128 0.0 0.0 0.00 0.00 0.00 1064.8
20260502040413 0 127 0.0 0.0 0.00 0.00 0.00 1065.1
20260502035909 0 129 0.0 0.0 0.00 0.00 0.00 1065.0
20260502035406 0 129 0.0 0.0 0.00 0.00 0.00 1065.0
20260502034903 0 130 0.0 0.0 0.00 0.00 0.00 1065.0
20260502034402 0 126 0.0 0.0 0.00 0.00 0.00 1065.2
20260502033900 0 128 0.0 0.0 0.00 0.00 0.00 1065.1
20260502033357 0 126 0.0 0.0 0.00 0.00 0.00 1065.0
20260502032853 0 125 0.0 0.0 0.00 0.00 0.00 1065.3
20260502032349 0 125 0.0 0.0 0.00 0.00 0.00 1065.2
20260502031847 0 125 0.0 0.0 0.00 0.00 0.00 1065.2
20260502031345 0 124 0.0 0.0 0.00 0.00 0.00 1065.1
20260502030843 0 125 0.0 0.0 0.00 0.00 0.00 1065.0
20260502030341 0 128 0.0 0.0 0.00 0.00 0.00 1065.2
20260502025838 0 128 0.0 0.0 0.00 0.00 0.00 1065.1
20260502025336 0 126 0.0 0.0 0.00 0.00 0.00 1065.2
20260502024834 0 129 0.0 0.0 0.00 0.00 0.00 1065.1
20260502024331 0 129 0.0 0.0 0.00 0.00 0.00 1065.1
20260502023829 0 132 0.0 0.0 0.00 0.00 0.00 1065.0
20260502023327 0 129 0.0 0.0 0.00 0.00 0.00 1064.9
20260502022824 0 128 0.0 0.0 0.00 0.00 0.00 1064.8
20260502022320 0 132 0.0 1.0 0.00 0.00 0.00 1065.0
20260502021817 0 132 0.0 0.0 0.00 0.00 0.00 1064.9
20260502021315 0 130 0.0 0.0 0.00 0.00 0.00 1064.7
20260502020812 0 128 0.0 0.0 0.00 0.00 0.00 1064.8
20260502020309 0 129 0.0 0.0 0.00 0.00 0.00 1064.7
20260502015806 0 128 0.0 0.0 0.00 0.00 0.00 1064.6
20260502015305 0 125 0.0 0.0 0.00 0.00 0.00 1064.7
20260502014800 0 123 0.0 0.0 0.00 0.00 0.00 1064.8
20260502014257 0 128 0.0 0.0 0.00 0.00 0.00 1064.5
20260502013753 0 128 0.0 0.0 0.00 0.00 0.00 1064.7
20260502013249 0 125 0.0 0.0 0.00 0.00 0.00 1064.5
20260502012746 0 125 0.0 0.0 0.00 0.00 0.00 1064.2
20260502012244 0 122 0.0 0.0 0.00 0.00 0.00 1064.3
20260502011741 0 124 0.0 0.0 0.00 0.00 0.00 1064.2
20260502011236 0 125 0.0 0.0 0.00 0.00 0.00 1063.8
20260502010734 0 126 0.0 0.0 0.00 0.00 0.00 1063.9
20260502010230 0 126 0.0 0.0 0.00 0.00 0.00 1063.8
20260502005728 0 124 0.0 0.0 0.00 0.00 0.00 1063.8
20260502005226 0 124 0.0 0.0 0.00 0.00 0.00 1063.6
20260502004722 0 127 0.0 1.0 0.00 0.00 0.00 1063.6
20260502004218 0 129 0.0 1.0 0.00 0.00 0.00 1063.7
20260502003716 0 149 1.0 2.0 0.00 0.00 0.00 1063.6
20260502003213 0 154 1.0 2.0 0.00 0.00 0.00 1063.5
20260502002709 0 117 1.0 2.0 0.00 0.00 0.00 1063.7
20260502002207 0 127 0.0 2.0 0.00 0.00 0.00 1063.4
20260502001704 0 117 1.0 2.0 0.00 0.00 0.00 1063.5
20260502001202 0 83 2.0 3.0 0.00 0.00 0.00 1063.5
20260502000659 0 321 2.0 3.0 0.00 0.00 0.00 1063.4
20260502000157 0 298 3.0 7.0 0.00 0.00 0.00 1063.3
20260501235652 0 90 3.0 5.0 0.00 0.00 0.00 1063.3
20260501235148 0 329 3.0 5.0 0.00 0.00 0.00 1063.4
20260501234644 0 199 1.0 2.0 0.00 0.00 0.00 1063.3
20260501234142 0 74 3.0 3.0 0.00 0.00 0.00 1063.3
20260501233639 0 140 2.0 5.0 0.00 0.00 0.00 1063.4
20260501233137 0 118 0.0 5.0 0.00 0.00 0.00 1063.4
20260501232632 0 358 5.0 6.0 0.00 0.00 0.00 1063.1
20260501232130 0 65 2.0 3.0 0.00 0.00 0.00 1063.5
20260501231627 0 96 3.0 5.0 0.00 0.00 0.00 1063.1
20260501231126 0 273 4.0 5.0 0.00 0.00 0.00 1063.3
20260501230624 0 164 3.0 7.0 0.00 0.00 0.00 1063.4
20260501230122 0 49 2.0 5.0 0.00 0.00 0.00 1063.0
20260501225619 0 142 1.0 3.0 0.00 0.00 0.00 1063.1
20260501225115 0 246 1.0 5.0 0.00 0.00 0.00 1063.3
20260501224612 0 156 2.0 5.0 0.00 0.00 0.00 1063.1
20260501224109 0 47 2.0 6.0 0.00 0.00 0.00 1063.4
20260501223606 0 328 2.0 9.0 0.00 0.00 0.00 1063.5
20260501223103 0 329 9.0 10.0 0.00 0.00 0.00 1063.4
20260501222558 0 4 3.0 5.0 0.00 0.00 0.00 1063.0
20260501222056 0 38 4.0 7.0 0.00 0.00 0.00 1063.3
20260501221552 0 334 6.0 9.0 0.00 0.00 0.00 1063.4
20260501221050 0 347 5.0 7.0 0.00 0.00 0.00 1063.0
20260501220547 0 21 6.0 7.0 0.00 0.00 0.00 1063.4
20260501220044 0 9 4.0 7.0 0.00 0.00 0.00 1063.5
20260501215540 0 328 9.0 10.0 0.00 0.00 0.00 1063.4
20260501215036 0 341 5.0 7.0 0.00 0.00 0.00 1063.7
20260501214531 0 337 4.0 8.0 0.00 0.00 0.00 1063.6
20260501214027 0 70 2.0 10.0 0.00 0.00 0.00 1063.7
20260501213525 0 68 2.0 3.0 0.00 0.00 0.00 1063.7
20260501213020 0 312 4.0 10.0 0.00 0.00 0.00 1063.7
20260501212517 0 16 4.0 6.0 0.00 0.00 0.00 1063.9
20260501212014 0 87 2.0 5.0 0.00 0.00 0.00 1063.8
20260501211511 0 70 2.0 5.0 0.00 0.00 0.00 1063.8
20260501211009 0 198 3.0 3.0 0.00 0.00 0.00 1064.0
20260501210505 0 132 1.0 3.0 0.00 0.00 0.00 1064.1
20260501210001 0 6 2.0 6.0 0.00 0.00 0.00 1064.2
20260501205458 0 334 4.0 5.0 0.00 0.00 0.00 1064.4
20260501204956 0 305 3.0 6.0 0.00 0.00 0.00 1064.6
20260501204451 0 9 2.0 3.0 0.00 0.00 0.00 1064.5
20260501203948 0 25 3.0 3.0 0.00 0.00 0.00 1064.6
20260501203444 0 115 1.0 2.0 0.00 0.00 0.00 1065.0
20260501202942 0 86 2.0 2.0 0.00 0.00 0.00 1065.0
20260501202439 0 124 3.0 3.0 0.00 0.00 0.00 1065.1
20260501201935 0 170 1.0 5.0 0.00 0.00 0.00 1065.0
20260501201432 0 354 3.0 6.0 0.00 0.00 0.00 1065.1
20260501200929 0 26 3.0 7.0 0.00 0.00 0.00 1065.3
20260501200426 0 107 3.0 5.0 0.00 0.00 0.00 1065.3
20260501195924 0 27 3.0 5.0 0.00 0.00 0.00 1065.3
20260501195420 0 319 4.0 6.0 0.00 0.00 0.00 1065.3
20260501194916 0 145 1.0 2.0 0.00 0.00 0.00 1065.3
20260501194412 0 128 0.0 2.0 0.00 0.00 0.00 1065.4
20260501193908 0 358 5.0 6.0 0.00 0.00 0.00 1065.7
20260501193406 0 26 5.0 7.0 0.00 0.00 0.00 1065.6
20260501192904 0 82 3.0 6.0 0.00 0.00 0.00 1065.6
20260501192401 0 104 2.0 2.0 0.00 0.00 0.00 1065.7
20260501191857 0 121 2.0 5.0 0.00 0.00 0.00 1065.7
20260501191354 0 42 3.0 6.0 0.00 0.00 0.00 1065.8
20260501190846 0 118 2.0 2.0 0.00 0.00 0.00 1066.0
20260501190342 0 0 5.0 11.0 0.00 0.00 0.00 1065.7
20260501185837 0 35 2.0 2.0 0.00 0.00 0.00 1065.8
20260501185333 0 18 2.0 5.0 0.00 0.00 0.00 1065.8
20260501184829 0 156 2.0 3.0 0.00 0.00 0.00 1066.2
20260501184325 0 268 3.0 3.0 0.00 0.00 0.00 1066.1
20260501183821 0 196 1.0 3.0 0.00 0.00 0.00 1066.3
20260501183319 0 232 3.0 5.0 0.00 0.00 0.00 1066.1
20260501182815 0 7 3.0 5.0 0.00 0.00 0.00 1066.4